Tracking 29892 objects as of 21-Nov-2024
HD Live streaming from Space Station
objects crossing your sky now

STARLINK-5024

Track STARLINK-5024 now!
10-day predictions
STARLINK-5024 is classified as:


NORAD ID: 53901
Int'l Code: 2022-119R
Perigee: 546.1 km
Apogee: 547.6 km
Inclination: 53.2 °
Period: 95.4 minutes
Semi major axis: 6917 km
RCS: Unknown
Launch date: September 24, 2022
Source: United States (US)
Launch site: AIR FORCE EASTERN TEST RANGE (AFETR)
Your satellite tracking list
Your tracking list is empty




NASA's NSSDC Master Catalog

Two Line Element Set (TLE):
1 53901U 22119R   24325.91552375 -.00006040  00000-0 -36161-3 0  9998
2 53901  53.2139 290.7679 0001124  75.5059 284.6058 15.08850829120161
Source of the keplerian elements: AFSPC